SCP
0 0 0 0 0 0 0 0 0 0 0 0 0 0 0 0 0 0 0 0 0 0 0 0 0 0 0 0 0 0 0 0 0 0 0 0 0 0 0 0 0 0 0 0
0 0 0 0 0 0 0 0 0 0 0 0 0 0 0 0 0 0 0 0 0 0 0 0 0 0 0 0 0 0 0 0 0 0 0 0 0 0 0 0 0 0 0 0
0 0 0 0 0 0 0 0 0 0 0 0 0 0 0 0 0 0 0 0 0 0 0 0 0 0 0 0 0 0 0 0 0 0 0 0 0 0 0 0 0 0 0 0
0 0 0 0 0 0 0 0 0 0 0 0 0 0 0 0 0 0 0 0 0 0 0 0 0 0 0 0 0 0 0 0 0 0 0 0 0 0 0 0 0 0 0 0
0 0 0 0 0 0 0 0 0 0 0 0 0 0 0 0 0 0 0 0 0 0 0 0 0 0 0 0 0 0 0 0 0 0 0 0 0 0 0 0 0 0 0 0
0 0 0 0 0 0 0 0 0 0 0 0 0 0 0 0 0 0 0 0 0 0 0 0 0 0 0 0 0 0 0 0 0 0 0 0 0 0 0 0 0 0 0 0
0 0 0 0 0 0 0 0 0 0 0 0 0 0 0 0 0 0 0 0 0 0 0 0 0 0 0 0 0 0 0 0 0 0 0 0 0 0 0 0 0 0 0 0
0 0 0 0 0 0 0 0 0 0 0 0 0 0 0 0 0 0 0 0 0 0 0 0 0 0 0 0 0 0 0 0 0 0 0 0 0 0 0 0 0 0 0 0
0 0 0 0 0 0 0 0 0 0 0 0 0 0 0 0 0 0 0 0 0 0 0 0 0 0 0 0 0 0 0 0 0 0 0 0 0 0 0 0 0 0 0 0
0 0 0 0 0 0 0 0 0 0 0 0 0 0 0 0 0 0 0 0 0 0 0 0 0 0 0 0 0 0 0 0 0 0 0 0 0 0 0 0 0 0 0 0
0 0 0 0 0 0 0 0 0 0 0 0 0 0 0 0 0 0 0 0 0 0 0 0 0 0 0 0 0 0 0 0 0 0 0 0 0 0 0 0 0 0 0 0
0 0 0 0 0 0 0 0 0 0 0 0 0 0 0 0 0 0 0 0 0 0 0 0 0 0 0 0 0 0 0 0 0 0 0 0 0 0 0 0 0 0 0 0
0 0 0 0 0 0 0 0 0 0 0 0 0 0 0 0 0 0 0 0 0 0 0 0 0 0 0 0 0 0 0 0 0 0 0 0 0 0 0 0 0 0 0 0
0 0 0 0 0 0 0 0 0 0 0 0 0 0 0 0 0 0 0 0 0 0 0 0 0 0 0 0 0 0 0 0 0 0 0 0 0 0 0 0 0 0 0 0
0 0 0 0 0 0 0 0 0 0 0 0 0 0 0 0 0 0 0 0 0 0 0 0 0 0 0 0 0 0 0 0 0 0 0 0 0 0 0 0 0 0 0 0
0 0 0 0 0 0 0 0 0 0 0 0 0 0 0 0 0 0 0 0 0 0 0 0 0 0 0 0 0 0 0 0 0 0 0 0 0 0 0 0 0 0 0 0
0 0 0 0 0 0 0 0 0 0 0 0 0 0 0 0 0 0 0 0 0 0 0 0 0 0 0 0 0 0 0 0 0 0 0 0 0 0 0 0 0 0 0 0
0 0 0 0 0 0 0 0 0 0 0 0 0 0 0 0 0 0 0 0 0 0 0 0 0 0 0 0 0 0 0 0 0 0 0 0 0 0 0 0 0 0 0 0
0 0 0 0 0 0 0 0 0 0 0 0 0 0 0 0 0 0 0 0 0 0 0 0 0 0 0 0 0 0 0 0 0 0 0 0 0 0 0 0 0 0 0 0
0 0 0 0 0 0 0 0 0 0 0 0 0 0 0 0 0 0 0 0 0 0 0 0 0 0 0 0 0 0 0 0 0 0 0 0 0 0 0 0 0 0 0 0
0 0 0 0 0 0 0 0 0 0 0 0 0 0 0 0 0 0 0 0 0 0 0 0 0 0 0 0 0 0 0 0 0 0 0 0 0 0 0 0 0 0 0 0
0 0 0 0 0 0 0 0 0 0 0 0 0 0 0 0 0 0 0 0 0 0 0 0 0 0 0 0 0 0 0 0 0 0 0 0 0 0 0 0 0 0 0 0
0 0 0 0 0 0 0 0 0 0 0 0 0 0 0 0 0 0 0 0 0 0 0 0 0 0 0 0 0 0 0 0 0 0 0 0 0 0 0 0 0 0 0 0
0 0 0 0 0 0 0 0 0 0 0 0 0 0 0 0 0 0 0 0 0 0 0 0 0 0 0 0 0 0 0 0 0 0 0 0 0 0 0 0 0 0 0 0
0 0 0 0 0 0 0 0 0 0 0 0 0 0 0 0 0 0 0 0 0 0 0 0 0 0 0 0 0 0 0 0 0 0 0 0 0 0 0 0 0 0 0 0
0 0 0 0 0 0 0 0 0 0 0 0 0 0 0 0 0 0 0 0 0 0 0 0 0 0 0 0 0 0 0 0 0 0 0 0 0 0 0 0 0 0 0 0
0 0 0 0 0 0 0 0 0 0 0 0 0 0 0 0 0 0 0 0 0 0 0 0 0 0 0 0 0 0 0 0 0 0 0 0 0 0 0 0 0 0 0 0
Wind_Speed
5 4 4 5 7 8 9 7 6 5 5 4 1 1 1 2 3 3 3 3 2 2 1 1 1 1 1 1 1 1 1 1 1 1 1 1 2 2 2 3 3 3 3 4
5 5 5 7 9 10 11 11 10 8 7 2 1 1 1 1 2 2 2 2 2 1 1 1 1 1 1 0 0 1 1 1 0 0 1 1 2 2 2 3 3 2 3 4
3 3 3 7 9 11 9 9 9 9 6 1 1 1 0 1 1 1 1 1 1 1 1 1 1 1 1 1 1 1 1 1 1 0 1 1 2 2 2 3 2 3 3 4
2 1 6 4 0 3 4 5 4 2 1 1 0 2 1 2 2 2 1 1 1 1 1 2 1 1 1 2 2 1 1 1 1 1 1 2 2 2 3 2 2 3 4 4
2 4 5 2 1 1 3 4 2 2 1 2 3 2 2 4 4 3 2 2 1 1 1 1 1 1 2 2 1 1 1 1 1 1 1 2 2 3 3 2 3 3 3 4
2 3 4 1 1 1 1 2 1 0 1 1 2 0 1 3 4 3 3 3 3 2 2 2 2 2 2 1 1 2 1 1 1 1 1 2 2 3 3 2 3 3 4 4
3 3 2 2 2 3 2 3 1 1 1 1 0 1 0 2 3 2 2 3 3 3 2 2 2 2 2 2 2 2 2 2 2 2 2 2 2 2 2 3 3 3 4 4
2 3 3 2 2 1 1 2 2 2 1 1 2 2 2 2 2 3 3 3 3 3 3 3 3 3 2 2 2 2 2 2 2 2 2 2 2 3 3 2 3 3 4 4
3 2 1 1 1 1 2 2 2 2 1 1 2 2 2 2 3 3 3 3 3 3 3 3 3 3 2 2 2 2 2 2 2 2 2 2 2 2 3 2 2 3 3 4
1 1 0 1 3 4 4 3 3 2 2 2 2 2 2 2 3 3 3 3 3 3 3 3 4 4 3 2 2 2 2 2 2 2 2 3 2 2 2 2 2 3 3 4
2 1 1 2 3 3 4 4 4 4 3 2 3 3 2 2 2 3 3 3 3 3 3 3 3 4 3 3 3 3 2 2 2 2 2 2 3 2 2 2 2 3 3 3
2 1 1 2 2 3 3 3 3 3 4 4 3 2 2 2 2 3 3 3 3 3 3 3 4 4 4 4 3 3 2 3 2 2 2 2 2 3 4 4 5 6 6 5
2 3 2 2 3 3 3 3 3 3 3 3 3 3 3 3 3 3 3 3 3 3 3 3 4 4 4 3 3 3 2 2 2 2 2 2 2 2 4 5 5 6 7 8
4 4 3 3 3 3 3 3 4 4 4 3 3 3 3 3 3 3 3 3 3 3 3 3 4 4 4 4 3 3 3 3 3 2 2 2 2 2 2 3 4 4 6 8
5 4 2 2 3 4 4 4 4 4 4 4 4 4 3 3 3 3 3 3 3 4 4 4 4 5 5 4 4 3 3 2 2 2 2 2 2 2 2 3 3 4 5 6
4 3 3 3 3 3 4 4 3 3 3 3 3 3 3 3 3 3 3 4 4 4 4 4 4 4 5 4 4 3 3 4 4 2 2 2 2 2 2 3 3 3 4 4
3 3 3 3 3 3 3 2 2 2 2 2 2 2 2 2 3 3 3 4 3 3 3 3 4 4 4 4 3 3 3 3 5 3 2 2 2 2 2 3 3 3 3 5
2 2 2 1 1 1 2 3 2 2 2 1 2 2 2 2 2 2 3 3 3 4 4 4 4 4 4 4 3 2 2 2 2 2 2 2 2 2 2 3 3 4 4 5
4 3 3 2 2 2 2 2 2 2 2 2 2 2 2 2 2 2 2 3 3 4 4 4 7 5 4 4 4 2 2 2 2 2 2 4 4 3 3 3 3 4 4 4
4 4 4 3 3 3 2 2 2 2 2 2 2 2 3 2 2 2 2 3 2 2 3 4 4 3 3 3 5 2 2 2 2 3 3 3 3 3 3 4 4 4 4 4
4 4 4 3 3 3 2 2 2 2 3 3 2 2 2 2 2 2 2 2 3 3 3 5 3 3 3 3 5 3 2 2 3 3 3 3 3 3 3 4 4 4 4 4
3 3 3 3 3 3 2 2 2 2 2 2 2 2 2 2 2 2 2 1 2 5 4 2 2 4 5 5 3 3 3 3 3 3 3 3 3 3 4 4 4 4 4 4
3 3 3 2 2 2 2 2 2 2 2 2 2 1 2 2 2 1 2 2 2 5 4 2 4 6 7 4 3 3 3 3 3 3 3 3 3 3 4 4 4 4 4 4
3 3 2 2 2 2 2 2 2 2 2 1 1 1 1 1 2 2 1 4 6 6 3 4 7 7 7 3 3 3 3 3 3 3 3 3 3 4 4 4 4 4 4 5
2 2 2 2 2 1 1 2 2 2 2 2 2 2 2 1 1 2 2 2 4 5 3 5 7 7 4 3 3 3 3 3 3 3 3 3 4 4 4 4 4 4 4 4
2 2 1 1 1 1 1 1 1 1 1 2 2 2 2 1 1 2 2 2 3 5 4 3 3 4 3 2 3 3 3 4 4 4 4 4 4 4 4 4 5 4 4 4
2 2 2 2 2 2 1 1 1 1 1 1 2 2 2 2 2 2 2 2 2 2 2 2 2 2 2 2 3 3 3 3 3 3 3 4 4 4 4 5 4 4 4 3
Wind_Direction
274 273 249 247 233 225 224 228 228 243 257 260 227 153 96 71 75 76 75 88 91 87 71 67 73 80 97 109 113 129 136 166 222 245 247 255 250 247 256 258 260 261 270 274
274 263 248 250 238 231 236 237 242 254 268 277 47 74 79 82 72 69 59 60 65 66 65 65 87 94 67 42 74 113 135 183 206 235 256 260 266 266 263 266 267 270 274 279
258 254 280 253 228 221 226 226 225 238 243 196 2 314 148 111 97 68 37 35 69 46 18 19 53 94 79 37 49 69 84 70 40 360 297 298 296 292 275 268 266 275 275 277
226 195 230 238 240 192 214 228 224 239 252 157 151 307 49 71 72 55 27 27 39 36 14 8 33 75 84 73 61 58 55 40 24 7 337 333 331 309 291 283 278 279 278 278
202 222 251 268 331 193 203 241 226 215 212 55 56 49 72 56 47 39 25 21 32 42 36 20 36 74 81 76 72 63 42 27 17 6 345 334 321 312 305 299 297 294 292 288
212 234 236 247 342 344 119 245 312 141 162 99 62 135 245 18 29 29 20 21 23 31 37 32 37 73 83 71 60 50 30 14 15 10 353 326 314 313 315 309 297 301 301 297
225 240 255 10 9 68 143 243 356 45 93 118 219 229 255 15 29 35 21 22 27 34 31 21 33 66 80 63 47 34 24 20 20 15 356 339 338 334 333 329 323 318 318 315
204 229 247 23 62 136 246 342 23 37 31 42 46 53 50 51 43 40 34 29 33 42 32 22 32 55 55 37 26 39 36 24 17 7 357 359 358 343 342 338 333 329 329 329
200 217 359 75 75 16 17 2 1 357 15 73 76 61 44 46 43 45 36 30 35 45 37 27 27 45 49 18 20 33 40 26 12 7 5 6 5 353 348 346 337 333 331 328
253 239 50 29 32 20 12 3 10 37 46 69 95 75 56 39 39 38 38 35 42 42 36 25 26 34 35 22 23 35 36 19 9 10 7 10 9 0 351 344 341 336 331 329
250 300 19 38 20 13 8 18 30 34 42 67 91 90 73 48 41 41 35 26 38 41 31 20 24 32 23 18 28 33 24 12 5 9 13 8 7 6 350 340 330 324 321 315
248 305 305 312 2 22 28 25 35 44 45 49 65 76 67 55 46 46 36 32 35 34 27 17 22 25 15 11 23 26 17 9 6 7 8 5 359 355 360 349 346 342 335 327
335 339 359 6 30 28 31 31 35 43 58 54 45 60 68 64 49 44 36 31 31 26 20 17 19 16 7 8 17 20 14 4 3 3 1 355 352 347 337 342 347 349 348 346
5 14 16 12 7 20 34 43 48 51 50 57 59 57 60 62 49 39 28 20 24 26 23 20 21 16 7 12 18 16 13 6 360 356 353 348 344 339 334 332 333 336 341 343
359 2 359 6 31 39 41 52 58 54 52 51 53 54 52 53 43 28 19 20 30 32 26 23 22 11 7 14 16 13 10 4 0 355 351 346 341 339 337 333 331 330 334 339
345 360 21 35 39 31 37 48 55 50 48 48 49 46 42 46 42 28 25 26 35 28 19 19 14 2 3 8 10 12 11 3 355 351 348 351 348 342 337 331 328 331 332 331
5 1 10 11 11 18 29 39 49 50 47 45 37 36 35 44 42 35 26 24 31 30 20 17 5 356 359 8 11 7 5 1 359 357 357 351 342 335 330 327 328 330 330 332
1 344 341 329 332 13 25 34 41 40 36 25 35 39 38 40 33 17 10 16 25 28 20 8 356 354 4 9 9 4 359 354 353 351 349 346 335 330 332 333 335 334 332 335
17 13 10 10 21 44 48 39 31 32 31 41 54 50 39 29 20 7 10 25 25 10 356 356 357 7 6 2 1 359 353 351 351 348 344 342 345 344 340 336 334 334 333 334
15 17 20 25 33 44 48 41 40 37 33 47 61 56 39 21 21 23 26 24 7 336 326 340 352 359 354 352 356 354 349 347 346 341 342 342 338 338 338 335 333 332 332 333
6 10 16 28 31 33 41 46 51 42 31 39 56 54 32 8 8 15 26 4 345 346 343 348 357 354 351 353 357 355 351 346 341 339 337 334 332 332 332 331 330 329 329 330
360 8 14 21 36 30 27 34 40 44 41 42 41 45 40 18 13 14 8 316 320 336 342 344 352 353 351 352 354 350 347 344 341 339 338 335 332 329 330 330 328 326 326 326
6 13 15 22 34 33 28 27 30 43 50 47 38 30 22 359 349 353 334 330 329 336 344 347 348 348 348 353 348 344 345 345 341 339 335 331 327 325 324 325 324 324 325 324
10 14 13 18 40 54 36 15 17 25 30 21 12 3 2 359 351 349 321 324 336 339 346 340 343 346 348 353 345 345 343 338 333 330 329 328 325 323 321 322 322 322 322 322
6 9 16 25 32 29 21 17 22 25 28 27 15 3 355 342 313 315 322 328 339 343 342 342 344 345 349 342 341 337 333 328 326 325 325 325 323 321 319 318 319 319 319 320
359 2 2 1 353 348 355 10 11 6 19 15 4 1 1 356 343 327 330 339 340 336 336 333 334 335 336 336 334 331 329 329 330 330 325 322 321 319 317 318 317 316 316 316
4 10 13 14 17 17 15 14 11 357 352 347 340 338 344 344 344 345 343 339 336 332 327 326 328 328 329 331 329 328 325 321 320 319 320 318 316 315 315 315 315 315 316 318